EW6246 Weather Reports


Display with metric or nautical units.
time (UTC)temp
F
wind
direction
speed
MPH
gust
MPH
rain 1hr
in
rain 24hr
in
rain mn
in
humidity
%
barometer
mb
20260504190513 79 258 3.0 3.0 0.00 0.00 0.00 78 1016.9
20260504190009 80 258 0.0 0.0 0.00 0.00 0.00 77 1016.7
20260504185507 78 258 0.0 0.0 0.00 0.00 0.00 76 1017.1
20260504185004 78 258 2.0 2.0 0.00 0.00 0.00 76 1017.2
20260504184459 80 269 3.0 6.0 0.00 0.00 0.00 72 1017.1
20260504183954 78 258 1.0 1.0 0.00 0.00 0.00 78 1017.1
20260504183452 79 258 3.0 5.0 0.00 0.00 0.00 75 1017.2
20260504182950 79 258 2.0 2.0 0.00 0.00 0.00 76 1017.2
20260504182446 78 258 0.0 1.0 0.00 0.00 0.00 78 1017.4
20260504181944 79 258 1.0 1.0 0.00 0.00 0.00 76 1017.4
20260504181441 79 258 3.0 3.0 0.00 0.00 0.00 75 1017.5
20260504180939 79 258 5.0 7.0 0.00 0.00 0.00 77 1017.3
20260504180438 80 258 1.0 1.0 0.00 0.00 0.00 72 1017.3
20260504175936 80 258 1.0 2.0 0.00 0.00 0.00 74 1017.4
20260504175433 80 258 2.0 2.0 0.00 0.00 0.00 74 1017.4
20260504174930 80 258 4.0 6.0 0.00 0.00 0.00 71 1017.5
20260504174427 80 258 3.0 5.0 0.00 0.00 0.00 72 1018.0
20260504173925 79 258 2.0 2.0 0.00 0.00 0.00 71 1017.7
20260504173421 80 258 3.0 3.0 0.00 0.00 0.00 71 1017.6
20260504172919 81 258 5.0 7.0 0.00 0.00 0.00 69 1018.0
20260504172415 82 258 1.0 1.0 0.00 0.00 0.00 68 1017.7
20260504171911 82 258 0.0 1.0 0.00 0.00 0.00 65 1017.9
20260504171409 80 258 0.0 0.0 0.00 0.00 0.00 71 1017.9
20260504170905 79 258 0.0 1.0 0.00 0.00 0.00 68 1017.9
20260504170402 80 258 1.0 1.0 0.00 0.00 0.00 67 1017.8
20260504160321 81 258 4.0 6.0 0.00 0.00 0.00 67 1018.3
20260504150745 80 258 2.0 3.0 0.00 0.00 0.00 70 1018.9
20260504150242 79 258 1.0 2.0 0.00 0.00 0.00 72 1018.4
20260504141212 80 302 1.0 1.0 0.00 0.00 0.00 70 1018.9
20260504140708 79 256 3.0 5.0 0.00 0.00 0.00 72 1018.2
20260504140203 80 228 3.0 3.0 0.00 0.00 0.00 70 1018.5
20260504130632 79 291 0.0 1.0 0.00 0.00 0.00 72 1018.5
20260504130129 79 65 3.0 3.0 0.00 0.00 0.00 69 1018.4
20260504110520 70 273 0.0 1.0 0.00 0.00 0.00 88 1018.4
20260504100436 63 289 0.0 0.0 0.00 0.00 0.00 97 1018.1
20260504081824 64 294 0.0 0.0 0.00 0.00 0.00 97 1017.4
20260504081321 64 296 0.0 0.0 0.00 0.00 0.00 96 1017.3
20260504080816 64 308 0.0 0.0 0.00 0.00 0.00 97 1017.4
20260504080314 64 294 0.0 0.0 0.00 0.00 0.00 97 1017.3
20260504070235 64 292 0.0 0.0 0.00 0.00 0.00 96 1017.3
20260504060155 64 293 0.0 0.0 0.00 0.00 0.00 94 1017.8
20260504050624 64 307 0.0 1.0 0.00 0.00 0.00 95 1018.4
20260504050121 64 317 1.0 1.0 0.00 0.00 0.00 95 1018.6
20260504045618 64 291 0.0 0.0 0.00 0.00 0.00 95 1018.6
20260504045112 64 301 0.0 0.0 0.00 0.00 0.00 95 1018.6
20260504044611 64 299 0.0 0.0 0.00 0.00 0.00 95 1018.7
20260504044107 64 281 0.0 0.0 0.00 0.00 0.00 95 1018.9
20260504043604 64 295 0.0 0.0 0.00 0.00 0.00 95 1018.9
20260504043101 64 291 0.0 0.0 0.00 0.00 0.00 95 1018.9
20260504042558 64 294 0.0 0.0 0.00 0.00 0.00 95 1018.7
20260504042055 64 291 0.0 0.0 0.00 0.00 0.00 95 1019.1
20260504041551 64 306 0.0 0.0 0.00 0.00 0.00 95 1019.2
20260504041048 65 295 0.0 0.0 0.00 0.00 0.00 95 1019.1
20260504040545 65 289 1.0 1.0 0.00 0.00 0.00 95 1019.2
20260504040041 64 294 1.0 1.0 0.00 0.00 0.00 95 1019.3
20260504035538 64 286 0.0 0.0 0.00 0.00 0.00 95 1019.1
20260504035034 65 274 0.0 0.0 0.00 0.00 0.00 95 1019.6
20260504034533 65 281 0.0 0.0 0.00 0.00 0.00 94 1019.4
20260504034029 65 285 0.0 0.0 0.00 0.00 0.00 94 1019.5
20260504033528 65 285 0.0 0.0 0.00 0.00 0.00 94 1019.4
20260504033024 65 283 0.0 0.0 0.00 0.00 0.00 94 1019.3
20260504032521 65 281 0.0 0.0 0.00 0.00 0.00 94 1019.5
20260504032018 65 285 0.0 0.0 0.00 0.00 0.00 94 1019.2
20260504031515 65 284 0.0 0.0 0.00 0.00 0.00 94 1019.3
20260504031011 65 282 0.0 0.0 0.00 0.00 0.00 94 1019.4
20260504030509 65 285 0.0 0.0 0.00 0.00 0.00 94 1019.5
20260504030004 65 292 0.0 1.0 0.00 0.00 0.00 94 1019.4
20260504025501 65 283 0.0 0.0 0.00 0.00 0.00 94 1019.5
20260504024958 66 283 0.0 0.0 0.00 0.00 0.00 93 1019.2
20260504024455 65 284 0.0 0.0 0.00 0.00 0.00 94 1019.1
20260504023953 65 287 0.0 1.0 0.00 0.00 0.00 95 1019.2
20260504023449 65 280 0.0 1.0 0.00 0.00 0.00 95 1019.1
20260504022944 66 281 0.0 0.0 0.00 0.00 0.00 95 1018.9
20260504022441 66 276 0.0 0.0 0.00 0.00 0.00 95 1018.9
20260504021938 66 277 0.0 0.0 0.00 0.00 0.00 94 1018.7
20260504021435 66 274 0.0 0.0 0.00 0.00 0.00 93 1018.9
20260504020932 66 275 0.0 0.0 0.00 0.00 0.00 93 1018.7
20260504020429 66 286 0.0 0.0 0.00 0.00 0.00 93 1018.5
20260504015925 66 277 0.0 0.0 0.00 0.00 0.00 93 1018.9
20260504015421 66 280 0.0 0.0 0.00 0.00 0.00 93 1018.9
20260504014917 66 279 0.0 0.0 0.00 0.00 0.00 93 1018.9
20260504014414 67 288 1.0 1.0 0.00 0.00 0.00 93 1018.7
20260504013911 67 284 0.0 0.0 0.00 0.00 0.00 92 1018.7
20260504013409 67 279 1.0 1.0 0.00 0.00 0.00 93 1018.6
20260504012905 67 274 0.0 0.0 0.00 0.00 0.00 92 1018.5
20260504012403 67 274 0.0 1.0 0.00 0.00 0.00 92 1018.7
20260504011900 67 271 0.0 0.0 0.00 0.00 0.00 92 1018.6
20260504011357 67 280 1.0 1.0 0.00 0.00 0.00 92 1018.6
20260504010853 67 272 0.0 0.0 0.00 0.00 0.00 92 1018.6
20260504010348 67 273 0.0 0.0 0.00 0.00 0.00 93 1018.7
20260504005845 67 269 0.0 0.0 0.00 0.00 0.00 92 1018.9
20260504005342 67 269 0.0 0.0 0.00 0.00 0.00 93 1018.9
20260504004840 68 271 0.0 0.0 0.00 0.00 0.00 93 1018.7
20260504004337 68 270 0.0 0.0 0.00 0.00 0.00 92 1018.7
20260504003833 68 269 0.0 0.0 0.00 0.00 0.00 93 1018.6
20260504003331 68 269 0.0 0.0 0.00 0.00 0.00 93 1018.3
20260504002827 69 272 0.0 0.0 0.00 0.00 0.00 92 1018.4
20260504002324 69 267 0.0 0.0 0.00 0.00 0.00 92 1018.4
20260504001822 69 273 0.0 0.0 0.00 0.00 0.00 91 1018.4
20260504001319 70 279 0.0 1.0 0.00 0.00 0.00 91 1018.0
20260504000815 70 286 0.0 0.0 0.00 0.00 0.00 91 1018.2
20260504000312 70 286 0.0 0.0 0.00 0.00 0.00 90 1018.1
20260503235810 70 277 0.0 1.0 0.00 0.00 0.00 90 1018.3
20260503235308 70 281 1.0 1.0 0.00 0.00 0.00 90 1018.3
20260503234805 70 267 0.0 0.0 0.00 0.00 0.00 89 1018.0
20260503234303 70 287 0.0 1.0 0.00 0.00 0.00 90 1018.2
20260503233800 71 259 0.0 1.0 0.00 0.00 0.00 89 1018.2
20260503233255 71 279 0.0 1.0 0.00 0.00 0.00 88 1018.0
20260503232753 71 282 1.0 1.0 0.00 0.00 0.00 87 1017.9
20260503232250 71 261 0.0 0.0 0.00 0.00 0.00 87 1018.0
20260503231748 71 258 1.0 1.0 0.00 0.00 0.00 87 1018.0
20260503231245 71 262 0.0 0.0 0.00 0.00 0.00 86 1018.1
20260503230740 72 275 1.0 2.0 0.00 0.00 0.00 85 1017.8
20260503230238 72 269 3.0 3.0 0.00 0.00 0.00 85 1017.8
20260503225736 72 258 0.0 1.0 0.00 0.00 0.00 86 1017.6
20260503225235 72 258 1.0 1.0 0.00 0.00 0.00 85 1017.7
20260503224732 72 258 1.0 2.0 0.00 0.00 0.00 85 1017.7
20260503224230 73 262 1.0 2.0 0.00 0.00 0.00 85 1017.6
20260503223728 73 258 1.0 1.0 0.00 0.00 0.00 84 1017.7
20260503223225 73 258 2.0 3.0 0.00 0.00 0.00 84 1017.7
20260503222721 74 258 1.0 1.0 0.00 0.00 0.00 84 1017.4
20260503222219 74 258 1.0 2.0 0.00 0.00 0.00 83 1017.4
20260503221717 74 258 3.0 3.0 0.00 0.00 0.00 83 1017.4
20260503221215 75 258 2.0 2.0 0.00 0.00 0.00 82 1017.2
20260503220711 75 258 3.0 6.0 0.00 0.00 0.00 81 1017.4
20260503220208 75 258 1.0 1.0 0.00 0.00 0.00 82 1017.6
20260503215705 76 258 4.0 5.0 0.00 0.00 0.00 81 1017.6
20260503215202 76 258 1.0 2.0 0.00 0.00 0.00 80 1017.5
20260503214700 76 258 2.0 2.0 0.00 0.00 0.00 80 1017.4
20260503214155 77 258 3.0 5.0 0.00 0.00 0.00 77 1017.2
20260503213649 77 258 3.0 3.0 0.00 0.00 0.00 78 1017.3
20260503213146 78 258 2.0 5.0 0.00 0.00 0.00 77 1017.3
20260503212643 79 258 3.0 5.0 0.00 0.00 0.00 74 1017.4
20260503212140 80 258 1.0 2.0 0.00 0.00 0.00 72 1017.3
20260503211638 79 258 1.0 2.0 0.00 0.00 0.00 72 1017.2
20260503211133 79 258 1.0 1.0 0.00 0.00 0.00 74 1017.0
20260503210630 78 258 4.0 6.0 0.00 0.00 0.00 75 1017.2
20260503210127 78 258 2.0 3.0 0.00 0.00 0.00 76 1017.1
20260503205622 78 258 3.0 3.0 0.00 0.00 0.00 75 1017.2
20260503205119 79 258 3.0 5.0 0.00 0.00 0.00 74 1017.2
20260503204616 80 258 2.0 3.0 0.00 0.00 0.00 73 1017.2
20260503204113 79 258 2.0 3.0 0.00 0.00 0.00 76 1017.1
20260503203610 79 258 4.0 5.0 0.00 0.00 0.00 73 1017.1
20260503203108 79 258 1.0 3.0 0.00 0.00 0.00 76 1017.2
20260503202605 80 258 3.0 5.0 0.00 0.00 0.00 73 1017.1
20260503202103 80 258 3.0 5.0 0.00 0.00 0.00 72 1017.3
20260503201600 81 258 0.0 1.0 0.00 0.00 0.00 72 1017.3
20260503201057 81 258 5.0 10.0 0.00 0.00 0.00 71 1017.2
20260503200554 81 258 1.0 1.0 0.00 0.00 0.00 71 1017.1
20260503200050 82 258 3.0 3.0 0.00 0.00 0.00 71 1017.4
20260503195547 81 258 2.0 2.0 0.00 0.00 0.00 71 1017.2
20260503195044 81 258 2.0 2.0 0.00 0.00 0.00 72 1017.2
20260503194541 81 258 2.0 2.0 0.00 0.00 0.00 73 1017.3
20260503194041 81 258 3.0 3.0 0.00 0.00 0.00 73 1017.4
20260503193538 80 258 2.0 2.0 0.00 0.00 0.00 73 1017.5
20260503193033 80 258 2.0 2.0 0.00 0.00 0.00 73 1017.6
20260503192530 82 258 3.0 3.0 0.00 0.00 0.00 71 1017.6
20260503192026 80 258 1.0 2.0 0.00 0.00 0.00 71 1017.4
20260503191523 80 258 2.0 2.0 0.00 0.00 0.00 72 1017.4
20260503191019 80 258 3.0 6.0 0.00 0.00 0.00 71 1017.5